Location: *
(57.8420°S, 159.8600°W)
Time: 11:39:38
(UTC+00:00)

PSLV R/B - Pass Details

Date: 18 May 2021
Orbit: 567 x 598 km, 98.2° (Epoch: 22 June)

Event Time Altitude Azimuth Distance (km) Brightness Sun altitude
Rises 03:53:25 0° 30° (NNE) 2,811 7.3 -11.0°
Reaches altitude 10° 03:55:36 10° 34° (NE) 1,913 6.4 -11.3°
Maximum altitude 03:59:40 58° 112° (ESE) 692 4.0 -11.8°
Drops below altitude 10° 04:03:46 10° 191° (S) 1,922 6.5 -12.3°
Sets 04:05:57 0° 194° (SSW) 2,825 7.4 -12.6°
